UAL188 PGUM-RPLL

Flight info

Callsign UAL188
Flight time 3h 45m
Altitude 38000
Route PGUM/24R DCT KITSS G467 ENDAX DCT MEXOL W9 AKDAP AKDAP3P
Aircraft B738/M-V/N

Departure

Time 2026-04-18 03:12
Airport Antonio B. Won Pat International Airport (PGUM)

Arrival

Time 2026-04-18 06:58
Airport Ninoy Aquino International Airport (RPLL)
Time Latitude Longitude Altitude Speed Heading
2026-04-18 03:02 13.49190 144.80598 276 ft 0 kts 330°
2026-04-18 03:05 13.49191 144.80597 276 ft 0 kts 330°
2026-04-18 03:05 13.49181 144.80603 277 ft 2 kts 330°
2026-04-18 03:05 13.49168 144.80611 279 ft 2 kts 330°
2026-04-18 03:05 13.49155 144.80618 280 ft 2 kts 330°
2026-04-18 03:06 13.49142 144.80626 281 ft 2 kts 330°
2026-04-18 03:06 13.49128 144.80633 283 ft 2 kts 356°
2026-04-18 03:06 13.49113 144.80629 283 ft 2 kts 32°
2026-04-18 03:06 13.49105 144.80621 283 ft 0 kts 59°
2026-04-18 03:07 13.49102 144.80615 283 ft 1 kts 63°
2026-04-18 03:09 13.49105 144.80621 283 ft 4 kts 63°
2026-04-18 03:09 13.49130 144.80669 285 ft 10 kts 61°
2026-04-18 03:10 13.49180 144.80760 287 ft 18 kts 61°
2026-04-18 03:10 13.49252 144.80894 292 ft 20 kts 63°
2026-04-18 03:10 13.49270 144.80989 298 ft 11 kts 129°
2026-04-18 03:10 13.49186 144.80983 303 ft 16 kts 206°
2026-04-18 03:11 13.49095 144.80965 306 ft 11 kts 120°
2026-04-18 03:11 13.49106 144.81055 312 ft 15 kts 64°
2026-04-18 03:11 13.49197 144.81165 316 ft 23 kts 84°
2026-04-18 03:11 13.49117 144.81111 316 ft 17 kts 259°
2026-04-18 03:12 13.49080 144.81001 310 ft 18 kts 244°
2026-04-18 03:12 13.48935 144.80667 296 ft 92 kts 244°
2026-04-18 03:12 13.48550 144.79842 285 ft 161 kts 246°
2026-04-18 03:12 13.48027 144.78755 954 ft 171 kts 246°
2026-04-18 03:13 13.47527 144.77748 2005 ft 159 kts 244°
2026-04-18 03:13 13.47031 144.76790 2751 ft 156 kts 246°
2026-04-18 03:13 13.46938 144.75606 3036 ft 181 kts 291°
2026-04-18 03:13 13.47684 144.74522 3556 ft 190 kts 306°
2026-04-18 03:14 13.48416 144.73340 3820 ft 204 kts 290°
2026-04-18 03:14 13.48819 144.71916 4078 ft 216 kts 279°
2026-04-18 03:14 13.49029 144.70316 4230 ft 233 kts 275°
2026-04-18 03:14 13.49182 144.68604 4441 ft 247 kts 274°
2026-04-18 03:15 13.49340 144.66801 4666 ft 259 kts 274°
2026-04-18 03:15 13.49511 144.64935 5105 ft 264 kts 274°
2026-04-18 03:15 13.49688 144.63052 5876 ft 264 kts 274°
2026-04-18 03:15 13.49863 144.61180 6668 ft 270 kts 274°
2026-04-18 03:16 13.50040 144.59282 7524 ft 273 kts 274°
2026-04-18 03:16 13.50220 144.57336 8340 ft 277 kts 274°
2026-04-18 03:16 13.50401 144.55377 9044 ft 279 kts 274°
2026-04-18 03:16 13.50588 144.53358 9668 ft 285 kts 274°
2026-04-18 03:17 13.50776 144.51332 10312 ft 288 kts 274°
2026-04-18 03:17 13.50970 144.49223 10562 ft 306 kts 274°
2026-04-18 03:17 13.51174 144.46999 10862 ft 320 kts 274°
2026-04-18 03:17 13.51385 144.44702 11122 ft 334 kts 274°
2026-04-18 03:18 13.51608 144.42276 11397 ft 347 kts 274°
2026-04-18 03:18 13.51836 144.39812 11969 ft 348 kts 274°
2026-04-18 03:18 13.52067 144.37318 12459 ft 352 kts 274°
2026-04-18 03:18 13.52300 144.34795 12955 ft 356 kts 274°
2026-04-18 03:19 13.52535 144.32259 13481 ft 358 kts 274°
2026-04-18 03:19 13.52769 144.29706 13961 ft 362 kts 274°
2026-04-18 03:19 13.53005 144.27127 14446 ft 365 kts 274°
2026-04-18 03:19 13.53240 144.24554 14920 ft 368 kts 274°
2026-04-18 03:20 13.53482 144.21905 15390 ft 372 kts 274°
2026-04-18 03:20 13.53723 144.19264 15879 ft 374 kts 274°
2026-04-18 03:20 13.53967 144.16583 16315 ft 377 kts 274°
2026-04-18 03:20 13.54210 144.13899 16751 ft 380 kts 274°
2026-04-18 03:21 13.54456 144.11197 17255 ft 381 kts 274°
2026-04-18 03:21 13.54703 144.08467 17659 ft 385 kts 274°
2026-04-18 03:21 13.54953 144.05708 18130 ft 387 kts 274°
2026-04-18 03:21 13.55201 144.02983 18505 ft 391 kts 274°
2026-04-18 03:22 13.55455 144.00191 18953 ft 393 kts 274°
2026-04-18 03:22 13.55708 143.97389 19377 ft 395 kts 274°
2026-04-18 03:22 13.55964 143.94547 19786 ft 398 kts 274°
2026-04-18 03:22 13.56219 143.91708 20165 ft 402 kts 274°
2026-04-18 03:23 13.56477 143.88843 20587 ft 404 kts 275°
2026-04-18 03:23 13.56734 143.85994 21000 ft 406 kts 275°
2026-04-18 03:23 13.56993 143.83110 21387 ft 408 kts 275°
2026-04-18 03:23 13.57254 143.80202 21780 ft 410 kts 275°
2026-04-18 03:24 13.57519 143.77240 22162 ft 413 kts 275°
2026-04-18 03:24 13.57782 143.74295 22491 ft 417 kts 275°
2026-04-18 03:24 13.58047 143.71329 22840 ft 420 kts 274°
2026-04-18 03:24 13.58315 143.68335 23195 ft 422 kts 274°
2026-04-18 03:25 13.58583 143.65324 23565 ft 424 kts 274°
2026-04-18 03:25 13.58851 143.62305 23906 ft 427 kts 274°
2026-04-18 03:25 13.59123 143.59265 24267 ft 429 kts 274°
2026-04-18 03:25 13.59395 143.56213 24614 ft 431 kts 274°
2026-04-18 03:26 13.59666 143.53162 24937 ft 434 kts 274°
2026-04-18 03:26 13.59942 143.50046 25299 ft 435 kts 273°
2026-04-18 03:26 13.60216 143.46945 25627 ft 438 kts 273°
2026-04-18 03:26 13.60492 143.43813 25940 ft 440 kts 273°
2026-04-18 03:27 13.60769 143.40675 26274 ft 442 kts 273°
2026-04-18 03:27 13.61046 143.37526 26601 ft 444 kts 273°
2026-04-18 03:27 13.61321 143.34383 26925 ft 446 kts 272°
2026-04-18 03:27 13.61599 143.31194 27237 ft 448 kts 272°
2026-04-18 03:28 13.61877 143.28006 27578 ft 450 kts 272°
2026-04-18 03:28 13.62157 143.24791 27868 ft 453 kts 272°
2026-04-18 03:28 13.62436 143.21571 28179 ft 454 kts 272°
2026-04-18 03:28 13.62715 143.18361 28480 ft 456 kts 272°
2026-04-18 03:29 13.62996 143.15111 28751 ft 459 kts 272°
2026-04-18 03:29 13.63279 143.11842 29122 ft 460 kts 272°
2026-04-18 03:29 13.63563 143.08568 29413 ft 462 kts 272°
2026-04-18 03:29 13.63850 143.05260 29759 ft 463 kts 273°
2026-04-18 03:30 13.64137 143.01978 30422 ft 456 kts 273°
2026-04-18 03:30 13.64415 142.98763 30914 ft 454 kts 273°
2026-04-18 03:30 13.64694 142.95540 31336 ft 452 kts 274°
2026-04-18 03:30 13.64971 142.92342 31805 ft 450 kts 274°
2026-04-18 03:31 13.65246 142.89151 32215 ft 448 kts 274°
2026-04-18 03:31 13.65520 142.85956 32624 ft 446 kts 275°
2026-04-18 03:31 13.65790 142.82797 32986 ft 446 kts 275°
2026-04-18 03:31 13.66065 142.79593 33301 ft 446 kts 275°
2026-04-18 03:32 13.66334 142.76439 33695 ft 444 kts 275°
2026-04-18 03:32 13.66602 142.73291 34045 ft 444 kts 275°
2026-04-18 03:32 13.66870 142.70152 34378 ft 443 kts 275°
2026-04-18 03:32 13.67140 142.66977 34667 ft 443 kts 275°
2026-04-18 03:33 13.67407 142.63835 34962 ft 443 kts 275°
2026-04-18 03:33 13.67674 142.60675 35278 ft 442 kts 275°
2026-04-18 03:33 13.67937 142.57571 35542 ft 442 kts 275°
2026-04-18 03:33 13.68204 142.54410 35803 ft 442 kts 275°
2026-04-18 03:34 13.68471 142.51254 36092 ft 442 kts 276°
2026-04-18 03:34 13.68734 142.48137 36370 ft 441 kts 276°
2026-04-18 03:34 13.68999 142.44987 36600 ft 441 kts 276°
2026-04-18 03:34 13.69260 142.41878 36871 ft 440 kts 276°
2026-04-18 03:35 13.69525 142.38715 37042 ft 442 kts 276°
2026-04-18 03:35 13.69786 142.35593 37264 ft 441 kts 276°
2026-04-18 03:35 13.70051 142.32416 37532 ft 440 kts 276°
2026-04-18 03:35 13.70313 142.29280 37745 ft 440 kts 276°
2026-04-18 03:36 13.70838 142.22996 37826 ft 443 kts 276°
2026-04-18 03:36 13.71383 142.16704 37826 ft 439 kts 276°
2026-04-18 03:37 13.71916 142.10461 37820 ft 439 kts 276°
2026-04-18 03:37 13.72413 142.04236 37817 ft 438 kts 276°
2026-04-18 03:38 13.72915 141.97980 37816 ft 438 kts 276°
2026-04-18 03:38 13.73419 141.91765 37813 ft 437 kts 276°
2026-04-18 03:39 13.73926 141.85548 37813 ft 438 kts 276°
2026-04-18 03:39 13.74436 141.79282 37813 ft 438 kts 275°
2026-04-18 03:40 13.74912 141.73418 37821 ft 437 kts 275°
2026-04-18 03:40 13.75418 141.67192 37825 ft 437 kts 275°
2026-04-18 03:41 13.75919 141.60988 37824 ft 435 kts 275°
2026-04-18 03:41 13.76420 141.54782 37824 ft 435 kts 275°
2026-04-18 03:42 13.76916 141.48604 37825 ft 436 kts 275°
2026-04-18 03:42 13.77412 141.42401 37823 ft 435 kts 275°
2026-04-18 03:43 13.77905 141.36206 37826 ft 435 kts 275°
2026-04-18 03:43 13.78399 141.29996 37823 ft 434 kts 274°
2026-04-18 03:44 13.78887 141.23828 37828 ft 435 kts 274°
2026-04-18 03:44 13.79376 141.17629 37825 ft 437 kts 274°
2026-04-18 03:45 13.79867 141.11395 37824 ft 435 kts 274°
2026-04-18 03:45 13.80356 141.05179 37825 ft 436 kts 274°
2026-04-18 03:46 13.80842 140.99000 37824 ft 437 kts 274°
2026-04-18 03:46 13.81328 140.92784 37824 ft 437 kts 274°
2026-04-18 03:47 13.81808 140.86585 37829 ft 436 kts 274°
2026-04-18 03:47 13.82291 140.80345 37831 ft 435 kts 274°
2026-04-18 03:48 13.82770 140.74136 37831 ft 437 kts 274°
2026-04-18 03:48 13.83246 140.67941 37834 ft 437 kts 274°
2026-04-18 03:49 13.83722 140.61705 37837 ft 436 kts 274°
2026-04-18 03:49 13.84161 140.55518 37842 ft 436 kts 274°
2026-04-18 03:50 13.84587 140.49289 37836 ft 437 kts 274°
2026-04-18 03:50 13.85015 140.43041 37826 ft 437 kts 274°
2026-04-18 03:51 13.85442 140.36859 37825 ft 436 kts 274°
2026-04-18 03:51 13.85871 140.30631 37823 ft 436 kts 274°
2026-04-18 03:52 13.86299 140.24406 37823 ft 437 kts 274°
2026-04-18 03:52 13.86727 140.18178 37823 ft 437 kts 274°
2026-04-18 03:53 13.87153 140.11940 37823 ft 437 kts 274°
2026-04-18 03:53 13.87575 140.05725 37823 ft 436 kts 274°
2026-04-18 03:54 13.87997 139.99501 37824 ft 437 kts 274°
2026-04-18 03:54 13.88419 139.93272 37824 ft 436 kts 274°
2026-04-18 03:55 13.88837 139.87056 37824 ft 437 kts 274°
2026-04-18 03:55 13.89256 139.80800 37825 ft 438 kts 274°
2026-04-18 03:56 13.89671 139.74580 37825 ft 437 kts 274°
2026-04-18 03:56 13.90089 139.68304 37824 ft 438 kts 274°
2026-04-18 03:57 13.90708 139.58960 37826 ft 436 kts 274°
2026-04-18 03:58 13.91117 139.52748 37828 ft 436 kts 274°
2026-04-18 03:58 13.91525 139.46538 37834 ft 437 kts 274°
2026-04-18 03:59 13.91937 139.40251 37836 ft 437 kts 274°
2026-04-18 03:59 13.92345 139.34000 37838 ft 438 kts 274°
2026-04-18 04:00 13.92752 139.27727 37839 ft 437 kts 274°
2026-04-18 04:00 13.93155 139.21490 37839 ft 437 kts 274°
2026-04-18 04:01 13.93552 139.15315 37843 ft 435 kts 274°
2026-04-18 04:01 13.93952 139.09078 37843 ft 436 kts 274°
2026-04-18 04:02 13.94349 139.02856 37841 ft 437 kts 274°
2026-04-18 04:02 13.94746 138.96603 37843 ft 437 kts 274°
2026-04-18 04:03 13.95141 138.90389 37838 ft 438 kts 274°
2026-04-18 04:03 13.95535 138.84157 37830 ft 437 kts 274°
2026-04-18 04:04 13.95925 138.77943 37825 ft 438 kts 274°
2026-04-18 04:04 13.96315 138.71713 37824 ft 437 kts 274°
2026-04-18 04:05 13.96702 138.65500 37822 ft 436 kts 274°
2026-04-18 04:05 13.97090 138.59224 37822 ft 438 kts 274°
2026-04-18 04:06 13.97475 138.53000 37823 ft 438 kts 274°
2026-04-18 04:06 13.97857 138.46767 37822 ft 437 kts 274°
2026-04-18 04:07 13.98240 138.40533 37822 ft 437 kts 274°
2026-04-18 04:07 13.98621 138.34309 37822 ft 437 kts 274°
2026-04-18 04:08 13.98998 138.28108 37822 ft 436 kts 274°
2026-04-18 04:08 13.99375 138.21884 37822 ft 437 kts 274°
2026-04-18 04:09 13.99750 138.15663 37820 ft 436 kts 274°
2026-04-18 04:09 14.00126 138.09405 37823 ft 437 kts 274°
2026-04-18 04:10 14.00497 138.03166 37829 ft 437 kts 274°
2026-04-18 04:10 14.00869 137.96930 37835 ft 435 kts 274°
2026-04-18 04:11 14.01237 137.90730 37840 ft 435 kts 274°
2026-04-18 04:11 14.01602 137.84537 37841 ft 436 kts 274°
2026-04-18 04:12 14.01966 137.78328 37842 ft 435 kts 274°
2026-04-18 04:12 14.02330 137.72098 37843 ft 436 kts 274°
2026-04-18 04:13 14.02692 137.65884 37840 ft 436 kts 274°
2026-04-18 04:13 14.03054 137.59650 37842 ft 436 kts 274°
2026-04-18 04:14 14.03413 137.53427 37842 ft 437 kts 274°
2026-04-18 04:14 14.03770 137.47208 37841 ft 436 kts 274°
2026-04-18 04:15 14.04126 137.40974 37843 ft 436 kts 274°
2026-04-18 04:15 14.04478 137.34788 37844 ft 436 kts 273°
2026-04-18 04:16 14.04833 137.28557 37843 ft 435 kts 273°
2026-04-18 04:16 14.05184 137.22328 37841 ft 435 kts 273°
2026-04-18 04:17 14.05532 137.16136 37842 ft 435 kts 273°
2026-04-18 04:17 14.05881 137.09895 37842 ft 436 kts 273°
2026-04-18 04:18 14.06226 137.03670 37842 ft 436 kts 273°
2026-04-18 04:18 14.06573 136.97414 37842 ft 438 kts 273°
2026-04-18 04:19 14.06920 136.91142 37837 ft 437 kts 273°
2026-04-18 04:19 14.07263 136.84914 37831 ft 436 kts 273°
2026-04-18 04:20 14.07601 136.78708 37824 ft 436 kts 273°
2026-04-18 04:20 14.07940 136.72424 37827 ft 436 kts 273°
2026-04-18 04:21 14.08212 136.67375 37827 ft 435 kts 273°
2026-04-18 04:21 14.08547 136.61142 37830 ft 436 kts 273°
2026-04-18 04:22 14.08878 136.54961 37833 ft 436 kts 273°
2026-04-18 04:22 14.09212 136.48697 37833 ft 438 kts 273°
2026-04-18 04:23 14.09545 136.42439 37834 ft 439 kts 273°
2026-04-18 04:23 14.09873 136.36215 37839 ft 439 kts 273°
2026-04-18 04:24 14.10203 136.29944 37842 ft 439 kts 272°
2026-04-18 04:24 14.10531 136.23680 37842 ft 438 kts 272°
2026-04-18 04:25 14.10856 136.17419 37841 ft 438 kts 272°
2026-04-18 04:25 14.11181 136.11162 37843 ft 439 kts 272°
2026-04-18 04:26 14.11504 136.04883 37844 ft 440 kts 272°
2026-04-18 04:26 14.11826 135.98614 37843 ft 439 kts 272°
2026-04-18 04:27 14.12145 135.92352 37841 ft 438 kts 272°
2026-04-18 04:27 14.12464 135.86089 37843 ft 437 kts 272°
2026-04-18 04:28 14.12779 135.79828 37843 ft 436 kts 272°
2026-04-18 04:28 14.13092 135.73598 37842 ft 438 kts 272°
2026-04-18 04:29 14.13405 135.67348 37841 ft 438 kts 272°
2026-04-18 04:29 14.13716 135.61078 37844 ft 437 kts 272°
2026-04-18 04:30 14.14026 135.54819 37842 ft 438 kts 272°
2026-04-18 04:30 14.14335 135.48555 37843 ft 438 kts 272°
2026-04-18 04:31 14.14640 135.42313 37845 ft 437 kts 272°
2026-04-18 04:31 14.14945 135.36050 37852 ft 437 kts 272°
2026-04-18 04:32 14.15246 135.29833 37859 ft 437 kts 272°
2026-04-18 04:32 14.15550 135.23550 37859 ft 437 kts 272°
2026-04-18 04:33 14.15851 135.17291 37854 ft 437 kts 272°
2026-04-18 04:33 14.16147 135.11053 37860 ft 438 kts 272°
2026-04-18 04:34 14.16441 135.04831 37861 ft 436 kts 272°
2026-04-18 04:34 14.16732 134.98557 37864 ft 437 kts 272°
2026-04-18 04:35 14.16925 134.92308 37865 ft 437 kts 271°
2026-04-18 04:35 14.17069 134.86035 37860 ft 437 kts 271°
2026-04-18 04:36 14.17216 134.79814 37860 ft 434 kts 271°
2026-04-18 04:36 14.17372 134.73552 37867 ft 438 kts 271°
2026-04-18 04:37 14.17530 134.67325 37861 ft 436 kts 271°
2026-04-18 04:37 14.17691 134.61055 37860 ft 438 kts 271°
2026-04-18 04:38 14.17849 134.54822 37860 ft 437 kts 271°
2026-04-18 04:38 14.18004 134.48572 37861 ft 436 kts 271°
2026-04-18 04:39 14.18159 134.42319 37859 ft 436 kts 271°
2026-04-18 04:39 14.18312 134.36079 37857 ft 436 kts 271°
2026-04-18 04:40 14.18464 134.29843 37859 ft 436 kts 271°
2026-04-18 04:40 14.18614 134.23592 37855 ft 437 kts 271°
2026-04-18 04:41 14.18762 134.17371 37857 ft 436 kts 271°
2026-04-18 04:41 14.18909 134.11110 37847 ft 436 kts 271°
2026-04-18 04:42 14.19053 134.04890 37843 ft 437 kts 271°
2026-04-18 04:42 14.19196 133.98648 37844 ft 436 kts 271°
2026-04-18 04:43 14.19339 133.92380 37846 ft 436 kts 271°
2026-04-18 04:43 14.19478 133.86165 37845 ft 436 kts 271°
2026-04-18 04:44 14.19618 133.79898 37849 ft 438 kts 271°
2026-04-18 04:44 14.19755 133.73605 37851 ft 437 kts 271°
2026-04-18 04:45 14.19891 133.67368 37849 ft 437 kts 271°
2026-04-18 04:45 14.20025 133.61130 37852 ft 435 kts 271°
2026-04-18 04:46 14.20157 133.54904 37850 ft 436 kts 271°
2026-04-18 04:46 14.20287 133.48648 37852 ft 436 kts 271°
2026-04-18 04:47 14.20415 133.42456 37857 ft 436 kts 271°
2026-04-18 04:47 14.20543 133.36165 37861 ft 436 kts 271°
2026-04-18 04:48 14.20668 133.29942 37862 ft 437 kts 271°
2026-04-18 04:48 14.20792 133.23688 37863 ft 436 kts 271°
2026-04-18 04:49 14.20913 133.17487 37864 ft 436 kts 271°
2026-04-18 04:49 14.21034 133.11252 37863 ft 435 kts 271°
2026-04-18 04:50 14.21153 133.05009 37864 ft 436 kts 270°
2026-04-18 04:50 14.21271 132.98785 37863 ft 436 kts 270°
2026-04-18 04:51 14.21386 132.92535 37863 ft 437 kts 270°
2026-04-18 04:51 14.21500 132.86287 37863 ft 436 kts 270°
2026-04-18 04:52 14.21613 132.80061 37863 ft 436 kts 270°
2026-04-18 04:52 14.21723 132.73848 37863 ft 436 kts 270°
2026-04-18 04:53 14.21833 132.67598 37863 ft 436 kts 270°
2026-04-18 04:53 14.21941 132.61375 37864 ft 436 kts 270°
2026-04-18 04:54 14.22047 132.55109 37864 ft 436 kts 270°
2026-04-18 04:54 14.22150 132.48859 37864 ft 437 kts 270°
2026-04-18 04:55 14.22254 132.42613 37863 ft 437 kts 270°
2026-04-18 04:55 14.22357 132.36354 37863 ft 436 kts 270°
2026-04-18 04:56 14.22506 132.27016 37863 ft 436 kts 270°
2026-04-18 04:56 14.22602 132.20756 37864 ft 436 kts 270°
2026-04-18 04:57 14.22698 132.14525 37862 ft 436 kts 270°
2026-04-18 04:57 14.22793 132.08258 37864 ft 438 kts 270°
2026-04-18 04:58 14.22886 132.01982 37864 ft 438 kts 270°
2026-04-18 04:58 14.22978 131.95737 37865 ft 438 kts 270°
2026-04-18 04:59 14.23069 131.89496 37863 ft 438 kts 270°
2026-04-18 04:59 14.23156 131.83232 37870 ft 437 kts 269°
2026-04-18 05:00 14.23240 131.76994 37863 ft 437 kts 270°
2026-04-18 05:00 14.23325 131.70700 37870 ft 438 kts 270°
2026-04-18 05:01 14.23413 131.64478 37872 ft 438 kts 270°
2026-04-18 05:01 14.23493 131.58212 37873 ft 439 kts 270°
2026-04-18 05:02 14.23571 131.51910 37874 ft 439 kts 270°
2026-04-18 05:02 14.23650 131.45650 37872 ft 438 kts 270°
2026-04-18 05:03 14.23726 131.39377 37867 ft 439 kts 270°
2026-04-18 05:03 14.23800 131.33099 37864 ft 439 kts 270°
2026-04-18 05:04 14.23872 131.26817 37862 ft 439 kts 270°
2026-04-18 05:04 14.23943 131.20550 37864 ft 438 kts 270°
2026-04-18 05:05 14.24015 131.14288 37865 ft 439 kts 270°
2026-04-18 05:05 14.24083 131.08011 37864 ft 439 kts 270°
2026-04-18 05:06 14.24150 131.01724 37865 ft 439 kts 270°
2026-04-18 05:06 14.24214 130.95450 37864 ft 438 kts 270°
2026-04-18 05:07 14.24277 130.89177 37863 ft 439 kts 270°
2026-04-18 05:07 14.24339 130.82860 37864 ft 438 kts 270°
2026-04-18 05:08 14.24399 130.76573 37864 ft 439 kts 270°
2026-04-18 05:08 14.24457 130.70264 37862 ft 439 kts 270°
2026-04-18 05:09 14.24515 130.63977 37864 ft 439 kts 270°
2026-04-18 05:09 14.24571 130.57695 37863 ft 439 kts 270°
2026-04-18 05:10 14.24623 130.51407 37864 ft 438 kts 270°
2026-04-18 05:10 14.24673 130.45123 37864 ft 439 kts 270°
2026-04-18 05:11 14.24724 130.38864 37864 ft 438 kts 270°
2026-04-18 05:11 14.24775 130.32585 37863 ft 437 kts 269°
2026-04-18 05:12 14.24824 130.26321 37863 ft 438 kts 269°
2026-04-18 05:12 14.24868 130.20029 37865 ft 438 kts 269°
2026-04-18 05:13 14.24913 130.13754 37861 ft 438 kts 269°
2026-04-18 05:13 14.24953 130.07457 37866 ft 439 kts 269°
2026-04-18 05:14 14.24992 130.01160 37864 ft 438 kts 269°
2026-04-18 05:14 14.24898 129.94919 37867 ft 438 kts 266°
2026-04-18 05:15 14.24583 129.88646 37879 ft 437 kts 266°
2026-04-18 05:15 14.24245 129.82413 37886 ft 438 kts 266°
2026-04-18 05:16 14.23924 129.76109 37884 ft 439 kts 266°
2026-04-18 05:16 14.23623 129.69824 37888 ft 439 kts 266°
2026-04-18 05:17 14.23331 129.63568 37886 ft 439 kts 266°
2026-04-18 05:17 14.23038 129.57283 37885 ft 440 kts 266°
2026-04-18 05:18 14.22740 129.50957 37889 ft 440 kts 266°
2026-04-18 05:18 14.22441 129.44669 37884 ft 439 kts 266°
2026-04-18 05:19 14.22143 129.38390 37881 ft 438 kts 266°
2026-04-18 05:19 14.21843 129.32136 37881 ft 439 kts 266°
2026-04-18 05:20 14.21543 129.25861 37883 ft 440 kts 266°
2026-04-18 05:20 14.21241 129.19574 37882 ft 441 kts 266°
2026-04-18 05:21 14.20936 129.13251 37886 ft 441 kts 266°
2026-04-18 05:21 14.20630 129.06957 37885 ft 440 kts 266°
2026-04-18 05:22 14.20326 129.00707 37885 ft 439 kts 266°
2026-04-18 05:22 14.20017 128.94447 37882 ft 439 kts 266°
2026-04-18 05:23 14.19703 128.88165 37873 ft 439 kts 266°
2026-04-18 05:23 14.19389 128.81874 37868 ft 440 kts 266°
2026-04-18 05:24 14.19074 128.75607 37868 ft 441 kts 266°
2026-04-18 05:24 14.18756 128.69276 37862 ft 441 kts 266°
2026-04-18 05:25 14.18439 128.62984 37864 ft 440 kts 266°
2026-04-18 05:25 14.18120 128.56668 37866 ft 440 kts 266°
2026-04-18 05:26 14.17800 128.50385 37868 ft 439 kts 266°
2026-04-18 05:26 14.17479 128.44119 37866 ft 439 kts 266°
2026-04-18 05:27 14.17153 128.37836 37865 ft 441 kts 266°
2026-04-18 05:27 14.16823 128.31526 37863 ft 441 kts 266°
2026-04-18 05:28 14.16493 128.25220 37864 ft 441 kts 266°
2026-04-18 05:28 14.16164 128.18936 37863 ft 441 kts 266°
2026-04-18 05:29 14.15832 128.12648 37864 ft 441 kts 266°
2026-04-18 05:29 14.15497 128.06360 37866 ft 441 kts 266°
2026-04-18 05:30 14.15161 128.00032 37862 ft 441 kts 266°
2026-04-18 05:30 14.14827 127.93750 37870 ft 441 kts 266°
2026-04-18 05:31 14.14489 127.87440 37874 ft 441 kts 266°
2026-04-18 05:31 14.14148 127.81142 37883 ft 441 kts 266°
2026-04-18 05:32 14.13807 127.74874 37886 ft 441 kts 266°
2026-04-18 05:32 14.13462 127.68547 37884 ft 441 kts 266°
2026-04-18 05:33 14.13117 127.62252 37886 ft 440 kts 266°
2026-04-18 05:33 14.12770 127.55949 37884 ft 440 kts 266°
2026-04-18 05:34 14.12422 127.49655 37884 ft 440 kts 266°
2026-04-18 05:34 14.12073 127.43387 37885 ft 439 kts 266°
2026-04-18 05:35 14.11724 127.37122 37884 ft 440 kts 266°
2026-04-18 05:35 14.11377 127.30909 37886 ft 440 kts 265°
2026-04-18 05:36 14.11017 127.24532 37884 ft 440 kts 265°
2026-04-18 05:36 14.10657 127.18175 37882 ft 440 kts 265°
2026-04-18 05:37 14.10299 127.11874 37883 ft 438 kts 265°
2026-04-18 05:37 14.09938 127.05559 37882 ft 438 kts 265°
2026-04-18 05:38 14.09575 126.99240 37886 ft 439 kts 265°
2026-04-18 05:38 14.09213 126.92963 37887 ft 440 kts 265°
2026-04-18 05:39 14.08849 126.86665 37887 ft 440 kts 265°
2026-04-18 05:39 14.08480 126.80348 37884 ft 440 kts 265°
2026-04-18 05:40 14.08112 126.74058 37886 ft 440 kts 265°
2026-04-18 05:40 14.07738 126.67725 37886 ft 439 kts 265°
2026-04-18 05:41 14.07368 126.61486 37885 ft 439 kts 265°
2026-04-18 05:41 14.06996 126.55204 37886 ft 439 kts 265°
2026-04-18 05:42 14.06625 126.48931 37888 ft 440 kts 265°
2026-04-18 05:42 14.06251 126.42667 37886 ft 440 kts 265°
2026-04-18 05:43 14.05871 126.36334 37886 ft 440 kts 265°
2026-04-18 05:43 14.05493 126.30050 37887 ft 440 kts 265°
2026-04-18 05:44 14.05114 126.23760 37885 ft 440 kts 265°
2026-04-18 05:44 14.04735 126.17508 37888 ft 440 kts 265°
2026-04-18 05:45 14.04351 126.11217 37884 ft 440 kts 265°
2026-04-18 05:45 14.03968 126.04958 37889 ft 441 kts 265°
2026-04-18 05:46 14.03581 125.98663 37885 ft 440 kts 265°
2026-04-18 05:46 14.03192 125.92404 37884 ft 440 kts 265°
2026-04-18 05:47 14.02799 125.86095 37882 ft 440 kts 265°
2026-04-18 05:47 14.02409 125.79850 37886 ft 439 kts 265°
2026-04-18 05:48 14.02017 125.73582 37884 ft 439 kts 265°
2026-04-18 05:48 14.01625 125.67353 37885 ft 439 kts 265°
2026-04-18 05:49 14.01229 125.61084 37884 ft 438 kts 265°
2026-04-18 05:49 14.00833 125.54839 37885 ft 438 kts 265°
2026-04-18 05:50 14.00436 125.48583 37885 ft 438 kts 265°
2026-04-18 05:50 14.00038 125.42360 37882 ft 438 kts 265°
2026-04-18 05:51 13.99639 125.36118 37883 ft 438 kts 265°
2026-04-18 05:51 13.99237 125.29868 37886 ft 437 kts 265°
2026-04-18 05:52 13.98834 125.23653 37891 ft 437 kts 265°
2026-04-18 05:52 13.98427 125.17401 37899 ft 437 kts 265°
2026-04-18 05:53 13.98019 125.11165 37900 ft 438 kts 265°
2026-04-18 05:53 13.97613 125.04955 37902 ft 437 kts 265°
2026-04-18 05:54 13.97204 124.98710 37906 ft 436 kts 265°
2026-04-18 05:54 13.96796 124.92522 37902 ft 435 kts 265°
2026-04-18 05:55 13.96384 124.86327 37894 ft 436 kts 265°
2026-04-18 05:55 13.95964 124.80033 37891 ft 437 kts 265°
2026-04-18 05:56 13.95553 124.73839 37886 ft 436 kts 265°
2026-04-18 05:56 13.95135 124.67602 37885 ft 436 kts 265°
2026-04-18 05:57 13.94504 124.58231 37884 ft 437 kts 265°
2026-04-18 05:58 13.94079 124.51957 37885 ft 437 kts 265°
2026-04-18 05:58 13.93657 124.45743 37887 ft 435 kts 265°
2026-04-18 05:59 13.93232 124.39529 37890 ft 436 kts 265°
2026-04-18 05:59 13.92812 124.33367 37895 ft 435 kts 265°
2026-04-18 06:00 13.92385 124.27140 37897 ft 437 kts 265°
2026-04-18 06:00 13.91954 124.20892 37901 ft 437 kts 265°
2026-04-18 06:01 13.91524 124.14667 37895 ft 435 kts 265°
2026-04-18 06:01 13.91093 124.08482 37893 ft 435 kts 264°
2026-04-18 06:02 13.90658 124.02258 37890 ft 434 kts 265°
2026-04-18 06:02 13.90228 123.96094 37884 ft 435 kts 265°
2026-04-18 06:03 13.89792 123.89860 37893 ft 434 kts 265°
2026-04-18 06:03 13.89358 123.83678 37902 ft 434 kts 264°
2026-04-18 06:04 13.88922 123.77507 37906 ft 435 kts 265°
2026-04-18 06:04 13.88478 123.71273 37904 ft 434 kts 264°
2026-04-18 06:05 13.88038 123.65105 37903 ft 434 kts 265°
2026-04-18 06:05 13.87599 123.58923 37897 ft 434 kts 265°
2026-04-18 06:06 13.87155 123.52719 37897 ft 434 kts 265°
2026-04-18 06:06 13.86708 123.46518 37896 ft 434 kts 265°
2026-04-18 06:07 13.84916 123.21809 37886 ft 435 kts 265°
2026-04-18 06:07 13.81959 122.80240 37899 ft 435 kts 271°
2026-04-18 06:07 13.82354 122.77165 37897 ft 436 kts 283°
2026-04-18 06:08 13.83326 122.74220 37907 ft 438 kts 291°
2026-04-18 06:08 13.85915 122.68493 37907 ft 439 kts 295°
2026-04-18 06:09 13.88652 122.62903 37906 ft 440 kts 295°
2026-04-18 06:09 13.91402 122.57272 37907 ft 440 kts 295°
2026-04-18 06:10 13.94105 122.51631 37841 ft 437 kts 295°
2026-04-18 06:10 13.95433 122.48838 37622 ft 429 kts 295°
2026-04-18 06:10 13.96734 122.46098 37225 ft 424 kts 295°
2026-04-18 06:10 13.98016 122.43390 36703 ft 421 kts 295°
2026-04-18 06:11 13.99308 122.40656 36100 ft 420 kts 295°
2026-04-18 06:11 14.00572 122.37980 35479 ft 420 kts 294°
2026-04-18 06:11 14.01852 122.35271 34980 ft 416 kts 294°
2026-04-18 06:11 14.03117 122.32592 34502 ft 413 kts 294°
2026-04-18 06:12 14.04373 122.29934 33998 ft 410 kts 294°
2026-04-18 06:12 14.05206 122.28169 33659 ft 408 kts 294°
2026-04-18 06:12 14.06871 122.24640 32973 ft 405 kts 294°
2026-04-18 06:12 14.08109 122.22016 32472 ft 402 kts 294°
2026-04-18 06:13 14.09325 122.19440 32018 ft 400 kts 295°
2026-04-18 06:13 14.10548 122.16849 31522 ft 398 kts 295°
2026-04-18 06:13 14.11745 122.14311 31031 ft 397 kts 295°
2026-04-18 06:13 14.12958 122.11731 30523 ft 395 kts 294°
2026-04-18 06:14 14.14146 122.09206 30036 ft 394 kts 295°
2026-04-18 06:14 14.15350 122.06648 29539 ft 392 kts 295°
2026-04-18 06:14 14.16540 122.04120 29040 ft 390 kts 295°
2026-04-18 06:14 14.17722 122.01609 28550 ft 388 kts 295°
2026-04-18 06:15 14.18893 121.99123 28075 ft 387 kts 295°
2026-04-18 06:15 14.20065 121.96633 27584 ft 385 kts 295°
2026-04-18 06:15 14.21244 121.94134 27091 ft 383 kts 295°
2026-04-18 06:15 14.22398 121.91668 26576 ft 382 kts 295°
2026-04-18 06:16 14.23508 121.89182 26044 ft 382 kts 293°
2026-04-18 06:16 14.24572 121.86687 25563 ft 380 kts 292°
2026-04-18 06:16 14.25607 121.84222 25077 ft 379 kts 293°
2026-04-18 06:16 14.26650 121.81743 24589 ft 378 kts 293°
2026-04-18 06:17 14.27729 121.79197 24105 ft 390 kts 293°
2026-04-18 06:17 14.28843 121.76584 23600 ft 402 kts 293°
2026-04-18 06:17 14.29969 121.73946 23078 ft 413 kts 293°
2026-04-18 06:17 14.31143 121.71202 22537 ft 417 kts 294°
2026-04-18 06:18 14.32310 121.68477 22017 ft 418 kts 294°
2026-04-18 06:18 14.33483 121.65736 21471 ft 419 kts 294°
2026-04-18 06:18 14.34655 121.62997 20941 ft 418 kts 294°
2026-04-18 06:18 14.35830 121.60250 20416 ft 416 kts 294°
2026-04-18 06:19 14.36992 121.57531 19878 ft 415 kts 295°
2026-04-18 06:19 14.38151 121.54823 19336 ft 413 kts 295°
2026-04-18 06:19 14.39311 121.52107 18931 ft 407 kts 295°
2026-04-18 06:19 14.40427 121.49488 18813 ft 395 kts 295°
2026-04-18 06:20 14.41520 121.46918 18688 ft 389 kts 295°
2026-04-18 06:20 14.42610 121.44362 18332 ft 397 kts 296°
2026-04-18 06:20 14.43739 121.41723 17990 ft 404 kts 296°
2026-04-18 06:20 14.44878 121.39058 17654 ft 410 kts 296°
2026-04-18 06:21 14.46043 121.36330 17339 ft 415 kts 296°
2026-04-18 06:21 14.47225 121.33559 16997 ft 421 kts 295°
2026-04-18 06:21 14.48213 121.30673 16638 ft 428 kts 287°
2026-04-18 06:21 14.48585 121.27639 16283 ft 427 kts 269°
2026-04-18 06:22 14.47961 121.24674 15838 ft 425 kts 249°
2026-04-18 06:22 14.46648 121.21911 15288 ft 423 kts 241°
2026-04-18 06:22 14.45137 121.19337 14767 ft 420 kts 239°
2026-04-18 06:22 14.43562 121.16805 14274 ft 416 kts 238°
2026-04-18 06:23 14.41988 121.14255 13767 ft 413 kts 239°
2026-04-18 06:23 14.40476 121.11726 13264 ft 410 kts 240°
2026-04-18 06:23 14.39005 121.09184 12760 ft 408 kts 241°
2026-04-18 06:23 14.37590 121.06679 12352 ft 406 kts 241°
2026-04-18 06:24 14.36165 121.04127 12469 ft 393 kts 241°
2026-04-18 06:24 14.34839 121.01736 12438 ft 379 kts 241°
2026-04-18 06:24 14.33565 120.99435 12430 ft 360 kts 241°
2026-04-18 06:24 14.32352 120.97246 12432 ft 342 kts 242°
2026-04-18 06:25 14.31572 120.95837 12430 ft 331 kts 242°
2026-04-18 06:25 14.30103 120.93186 12440 ft 313 kts 242°
2026-04-18 06:25 14.29036 120.91260 12422 ft 307 kts 242°
2026-04-18 06:25 14.27970 120.89338 12427 ft 309 kts 242°
2026-04-18 06:26 14.26884 120.87377 12445 ft 320 kts 242°
2026-04-18 06:26 14.25818 120.85371 12572 ft 322 kts 244°
2026-04-18 06:26 14.24807 120.83305 12669 ft 323 kts 246°
2026-04-18 06:26 14.23585 120.81318 12490 ft 331 kts 226°
2026-04-18 06:27 14.21702 120.79962 12259 ft 331 kts 208°
2026-04-18 06:27 14.19836 120.78634 12038 ft 326 kts 227°
2026-04-18 06:27 14.18696 120.76659 11827 ft 314 kts 254°
2026-04-18 06:27 14.18222 120.74532 11516 ft 303 kts 262°
2026-04-18 06:28 14.17795 120.72390 11103 ft 303 kts 256°
2026-04-18 06:28 14.17146 120.70362 10838 ft 298 kts 249°
2026-04-18 06:28 14.16279 120.68434 10611 ft 293 kts 243°
2026-04-18 06:28 14.15305 120.66615 10383 ft 288 kts 240°
2026-04-18 06:29 14.14282 120.64822 10179 ft 297 kts 239°
2026-04-18 06:29 14.13197 120.62944 9927 ft 312 kts 239°
2026-04-18 06:29 14.12195 120.60934 9654 ft 316 kts 249°
2026-04-18 06:29 14.11778 120.58751 9503 ft 307 kts 275°
2026-04-18 06:30 14.12390 120.56712 9493 ft 292 kts 304°
2026-04-18 06:30 14.13769 120.55216 9515 ft 284 kts 327°
2026-04-18 06:30 14.15486 120.54134 9542 ft 292 kts 333°
2026-04-18 06:30 14.17273 120.53091 9375 ft 303 kts 333°
2026-04-18 06:31 14.19194 120.52161 9061 ft 302 kts 344°
2026-04-18 06:31 14.21193 120.51929 8982 ft 271 kts 13°
2026-04-18 06:31 14.22824 120.52623 8891 ft 248 kts 38°
2026-04-18 06:31 14.24030 120.53846 8569 ft 239 kts 54°
2026-04-18 06:32 14.24929 120.55273 8255 ft 233 kts 60°
2026-04-18 06:32 14.25732 120.56713 7937 ft 233 kts 60°
2026-04-18 06:32 14.26530 120.58167 7667 ft 231 kts 59°
2026-04-18 06:32 14.27601 120.59420 7313 ft 233 kts 40°
2026-04-18 06:33 14.28686 120.60610 7063 ft 230 kts 63°
2026-04-18 06:33 14.29211 120.62166 6794 ft 228 kts 74°
2026-04-18 06:33 14.29713 120.63730 6455 ft 230 kts 66°
2026-04-18 06:33 14.30410 120.65198 6149 ft 231 kts 61°
2026-04-18 06:34 14.31216 120.66659 5789 ft 233 kts 60°
2026-04-18 06:34 14.32023 120.68079 5520 ft 231 kts 60°
2026-04-18 06:34 14.32839 120.69528 5264 ft 230 kts 60°
2026-04-18 06:34 14.33624 120.70936 4999 ft 228 kts 60°
2026-04-18 06:35 14.34418 120.72365 4737 ft 226 kts 60°
2026-04-18 06:35 14.35192 120.73759 4503 ft 224 kts 60°
2026-04-18 06:35 14.35965 120.75152 4255 ft 221 kts 60°
2026-04-18 06:35 14.36723 120.76517 4001 ft 218 kts 60°
2026-04-18 06:36 14.37611 120.77770 3762 ft 215 kts 54°
2026-04-18 06:36 14.38364 120.79101 3528 ft 212 kts 65°
2026-04-18 06:36 14.38991 120.80469 3306 ft 210 kts 65°
2026-04-18 06:36 14.39659 120.81785 3139 ft 204 kts 62°
2026-04-18 06:37 14.40361 120.83022 2983 ft 193 kts 60°
2026-04-18 06:37 14.41013 120.84164 2834 ft 176 kts 61°
2026-04-18 06:37 14.41607 120.85165 2720 ft 154 kts 54°
2026-04-18 06:37 14.42147 120.86092 2587 ft 146 kts 66°
2026-04-18 06:38 14.42597 120.87034 2501 ft 148 kts 63°
2026-04-18 06:38 14.43099 120.87959 2410 ft 151 kts 60°
2026-04-18 06:38 14.43843 120.88711 2249 ft 152 kts 24°
2026-04-18 06:38 14.44749 120.89277 2148 ft 152 kts 54°
2026-04-18 06:39 14.45011 120.90302 2028 ft 149 kts 95°
2026-04-18 06:39 14.45085 120.91354 1994 ft 149 kts 73°
2026-04-18 06:39 14.45391 120.92419 1778 ft 162 kts 90°
2026-04-18 06:39 14.45509 120.93561 1344 ft 171 kts 53°
2026-04-18 06:40 14.46413 120.94377 1376 ft 173 kts 40°
2026-04-18 06:40 14.47111 120.95190 2267 ft 150 kts 59°
2026-04-18 06:40 14.47685 120.96173 2618 ft 168 kts 63°
2026-04-18 06:40 14.48110 120.97462 2579 ft 208 kts 69°
2026-04-18 06:41 14.48756 120.98804 3328 ft 208 kts 62°
2026-04-18 06:41 14.49524 121.00111 3825 ft 233 kts 58°
2026-04-18 06:41 14.50462 121.01618 4003 ft 260 kts 58°
2026-04-18 06:41 14.51427 121.03268 4131 ft 273 kts 62°
2026-04-18 06:42 14.52255 121.05044 4340 ft 267 kts 68°
2026-04-18 06:42 14.52924 121.06808 4322 ft 259 kts 68°
2026-04-18 06:42 14.53626 121.08361 4896 ft 220 kts 61°
2026-04-18 06:42 14.54333 121.09722 4776 ft 227 kts 66°
2026-04-18 06:43 14.54519 121.11324 4729 ft 229 kts 104°
2026-04-18 06:43 14.53686 121.12700 4722 ft 234 kts 141°
2026-04-18 06:43 14.52120 121.13314 4345 ft 250 kts 180°
2026-04-18 06:43 14.50461 121.12831 4055 ft 249 kts 209°
2026-04-18 06:44 14.49022 121.11900 4037 ft 234 kts 212°
2026-04-18 06:44 14.47679 121.10985 4037 ft 226 kts 213°
2026-04-18 06:44 14.46371 121.10090 4044 ft 227 kts 213°
2026-04-18 06:44 14.45021 121.09166 4047 ft 231 kts 213°
2026-04-18 06:45 14.43682 121.08252 4043 ft 229 kts 213°
2026-04-18 06:45 14.42351 121.07344 4042 ft 229 kts 213°
2026-04-18 06:45 14.41006 121.06424 4048 ft 229 kts 213°
2026-04-18 06:45 14.39665 121.05508 4051 ft 230 kts 213°
2026-04-18 06:46 14.38329 121.04593 4054 ft 230 kts 213°
2026-04-18 06:46 14.36985 121.03673 4053 ft 231 kts 214°
2026-04-18 06:46 14.35652 121.02756 4062 ft 232 kts 213°
2026-04-18 06:46 14.34304 121.01828 4067 ft 231 kts 214°
2026-04-18 06:47 14.32967 121.00903 4069 ft 230 kts 214°
2026-04-18 06:47 14.31640 120.99982 4074 ft 231 kts 214°
2026-04-18 06:47 14.30309 120.99025 4082 ft 230 kts 215°
2026-04-18 06:47 14.29019 120.98051 4095 ft 230 kts 216°
2026-04-18 06:48 14.27728 120.97057 4110 ft 230 kts 216°
2026-04-18 06:48 14.26427 120.96051 4116 ft 230 kts 216°
2026-04-18 06:48 14.25144 120.95058 4115 ft 230 kts 216°
2026-04-18 06:48 14.23868 120.94072 4108 ft 229 kts 216°
2026-04-18 06:49 14.22827 120.92800 3911 ft 239 kts 247°
2026-04-18 06:49 14.22576 120.91677 3652 ft 246 kts 269°
2026-04-18 06:49 14.23218 120.89484 3471 ft 235 kts 302°
2026-04-18 06:49 14.24188 120.88226 3636 ft 214 kts 310°
2026-04-18 06:50 14.25184 120.87067 3556 ft 218 kts 311°
2026-04-18 06:50 14.26214 120.85884 3574 ft 226 kts 311°
2026-04-18 06:50 14.27478 120.84951 3815 ft 232 kts 342°
2026-04-18 06:50 14.29115 120.84685 4025 ft 233 kts 358°
2026-04-18 06:51 14.30585 120.84553 4669 ft 202 kts 354°
2026-04-18 06:51 14.32015 120.84280 4271 ft 214 kts 346°
2026-04-18 06:51 14.33338 120.83913 4439 ft 178 kts 348°
2026-04-18 06:51 14.34575 120.83665 4003 ft 183 kts 348°
2026-04-18 06:52 14.35830 120.83382 3500 ft 186 kts 349°
2026-04-18 06:52 14.37011 120.83066 3351 ft 163 kts 338°
2026-04-18 06:52 14.38140 120.82969 2965 ft 163 kts 13°
2026-04-18 06:52 14.39164 120.83289 2811 ft 145 kts 19°
2026-04-18 06:53 14.40088 120.83693 2593 ft 147 kts 31°
2026-04-18 06:53 14.40861 120.84409 2410 ft 151 kts 52°
2026-04-18 06:53 14.41534 120.85238 2463 ft 148 kts 49°
2026-04-18 06:53 14.42161 120.86118 2582 ft 153 kts 60°
2026-04-18 06:54 14.42708 120.87093 2622 ft 157 kts 63°
2026-04-18 06:54 14.43259 120.88061 2523 ft 158 kts 60°
2026-04-18 06:54 14.43815 120.89029 2346 ft 157 kts 62°
2026-04-18 06:54 14.44313 120.90021 2103 ft 155 kts 64°
2026-04-18 06:55 14.44805 120.91018 1833 ft 153 kts 63°
2026-04-18 06:55 14.45326 120.91937 1546 ft 147 kts 58°
2026-04-18 06:55 14.45861 120.92830 1280 ft 144 kts 59°
2026-04-18 06:55 14.46383 120.93701 1148 ft 142 kts 63°
2026-04-18 06:56 14.46898 120.94584 1104 ft 144 kts 57°
2026-04-18 06:56 14.47392 120.95503 1060 ft 152 kts 66°
2026-04-18 06:56 14.47898 120.96519 937 ft 166 kts 60°
2026-04-18 06:56 14.48483 120.97578 771 ft 167 kts 63°
2026-04-18 06:57 14.49017 120.98586 485 ft 156 kts 62°
2026-04-18 06:57 14.50069 121.00516 89 ft 146 kts 62°
2026-04-18 06:57 14.50496 121.01292 82 ft 91 kts 61°
2026-04-18 06:58 14.50724 121.01676 82 ft 47 kts 46°
2026-04-18 06:58 14.50868 121.01784 82 ft 2 kts 358°
2026-04-18 06:58 14.50881 121.01782 82 ft 0 kts 346°
2026-04-18 06:58 14.50901 121.01772 82 ft 11 kts 324°
2026-04-18 06:59 14.50973 121.01701 82 ft 14 kts 314°
2026-04-18 06:59 14.51042 121.01630 82 ft 13 kts 316°
2026-04-18 06:59 14.51110 121.01559 82 ft 15 kts 314°
2026-04-18 06:59 14.51179 121.01487 82 ft 13 kts 313°
2026-04-18 07:00 14.51228 121.01434 82 ft 3 kts 318°
2026-04-18 07:00 14.51273 121.01427 82 ft 11 kts 26°
2026-04-18 07:00 14.51357 121.01519 82 ft 17 kts 48°
2026-04-18 07:00 14.51431 121.01588 82 ft 12 kts 15°
2026-04-18 07:01 14.51496 121.01548 82 ft 11 kts 313°
2026-04-18 07:01 14.51550 121.01494 82 ft 10 kts 316°
2026-04-18 07:01 14.51592 121.01447 82 ft 8 kts 315°
2026-04-18 07:01 14.51633 121.01406 82 ft 7 kts 315°
2026-04-18 07:02 14.51669 121.01368 82 ft 7 kts 315°
2026-04-18 07:02 14.51699 121.01372 82 ft 5 kts 37°
2026-04-18 07:02 14.51723 121.01394 82 ft 4 kts 44°
2026-04-18 07:02 14.51744 121.01414 82 ft 4 kts 44°
2026-04-18 07:03 14.51754 121.01424 82 ft 0 kts 46°